| time (UTC) | temp F | wind direction | speed MPH | gust MPH | rain 1hr in | rain 24hr in | rain mn in | humidity % | barometer mb |
| 20260505182052 | 61 | 0 | 0.0 | 3.0 | 0.00 | 0.00 | 0.00 | 75 | 1017.2 |
| 20260505181558 | 61 | 0 | 0.0 | 3.0 | 0.00 | 0.00 | 0.00 | 75 | 1017.1 |
| 20260505181053 | 60 | 248 | 0.0 | 3.0 | 0.00 | 0.00 | 0.00 | 75 | 1017.0 |
| 20260505180552 | 60 | 309 | 0.0 | 2.0 | 0.00 | 0.00 | 0.00 | 77 | 1017.1 |
| 20260505180054 | 60 | 0 | 0.0 | 2.0 | 0.00 | 0.00 | 0.00 | 77 | 1017.0 |
| 20260505175554 | 60 | 356 | 0.0 | 1.0 | 0.00 | 0.00 | 0.00 | 77 | 1017.0 |
| 20260505175054 | 60 | 289 | 0.0 | 1.0 | 0.00 | 0.00 | 0.00 | 77 | 1017.1 |
| 20260505174557 | 60 | 0 | 0.0 | 1.0 | 0.00 | 0.00 | 0.00 | 77 | 1017.1 |
| 20260505174054 | 60 | 245 | 0.0 | 2.0 | 0.00 | 0.00 | 0.00 | 77 | 1017.0 |
| 20260505173553 | 59 | 243 | 0.0 | 3.0 | 0.00 | 0.00 | 0.00 | 77 | 1017.0 |
| 20260505173057 | 59 | 0 | 0.0 | 4.0 | 0.00 | 0.00 | 0.00 | 77 | 1017.0 |
| 20260505172552 | 59 | 208 | 1.0 | 4.0 | 0.00 | 0.00 | 0.00 | 77 | 1017.0 |
| 20260505172051 | 59 | 0 | 1.0 | 4.0 | 0.00 | 0.00 | 0.00 | 76 | 1016.9 |
| 20260505171601 | 59 | 0 | 0.0 | 2.0 | 0.00 | 0.00 | 0.00 | 78 | 1016.8 |
| 20260505171053 | 59 | 0 | 0.0 | 1.0 | 0.00 | 0.00 | 0.00 | 78 | 1016.8 |
| 20260505170551 | 59 | 0 | 0.0 | 2.0 | 0.00 | 0.00 | 0.00 | 78 | 1016.8 |
| 20260505170055 | 59 | 0 | 0.0 | 2.0 | 0.00 | 0.00 | 0.00 | 78 | 1016.7 |
| 20260505165552 | 59 | 298 | 1.0 | 2.0 | 0.00 | 0.00 | 0.00 | 77 | 1016.7 |
| 20260505165052 | 59 | 315 | 0.0 | 3.0 | 0.00 | 0.00 | 0.00 | 78 | 1016.7 |
| 20260505164617 | 59 | 348 | 0.0 | 3.0 | 0.00 | 0.00 | 0.00 | 78 | 1016.6 |
| 20260505164054 | 59 | 224 | 1.0 | 3.0 | 0.00 | 0.00 | 0.00 | 77 | 1016.6 |
| 20260505163552 | 59 | 259 | 0.0 | 2.0 | 0.00 | 0.00 | 0.00 | 78 | 1016.7 |
| 20260505163102 | 59 | 217 | 0.0 | 2.0 | 0.00 | 0.00 | 0.00 | 79 | 1016.5 |
| 20260505162555 | 58 | 0 | 0.0 | 1.0 | 0.00 | 0.00 | 0.00 | 79 | 1016.5 |
| 20260505162054 | 58 | 0 | 0.0 | 1.0 | 0.00 | 0.00 | 0.00 | 79 | 1016.5 |
| 20260505161613 | 58 | 0 | 0.0 | 1.0 | 0.00 | 0.00 | 0.00 | 81 | 1016.5 |
| 20260505161054 | 58 | 0 | 0.0 | 1.0 | 0.00 | 0.00 | 0.00 | 82 | 1016.4 |
| 20260505160554 | 57 | 0 | 0.0 | 1.0 | 0.00 | 0.00 | 0.00 | 81 | 1016.5 |
| 20260505153055 | 56 | 292 | 1.0 | 2.0 | 0.00 | 0.00 | 0.00 | 84 | 1016.4 |
| 20260505152553 | 56 | 224 | 1.0 | 3.0 | 0.00 | 0.00 | 0.00 | 84 | 1016.4 |
| 20260505152052 | 56 | 228 | 1.0 | 3.0 | 0.00 | 0.00 | 0.00 | 84 | 1016.4 |
| 20260505151555 | 56 | 156 | 0.0 | 1.0 | 0.00 | 0.00 | 0.00 | 84 | 1016.5 |
| 20260505151052 | 56 | 317 | 0.0 | 2.0 | 0.00 | 0.00 | 0.00 | 84 | 1016.3 |
| 20260505150553 | 55 | 216 | 0.0 | 3.0 | 0.00 | 0.00 | 0.00 | 84 | 1016.3 |
| 20260505140553 | 55 | 0 | 0.0 | 1.0 | 0.00 | 0.00 | 0.00 | 85 | 1015.6 |
| 20260505130110 | 55 | 0 | 0.0 | 0.0 | 0.00 | 0.00 | 0.00 | 84 | 1015.5 |
| 20260505124559 | 55 | 0 | 0.0 | 1.0 | 0.00 | 0.00 | 0.00 | 84 | 1015.4 |
| 20260505124053 | 55 | 232 | 0.0 | 1.0 | 0.00 | 0.00 | 0.00 | 85 | 1015.3 |
| 20260505123553 | 55 | 0 | 0.0 | 0.0 | 0.00 | 0.00 | 0.00 | 84 | 1015.3 |
| 20260505123105 | 55 | 0 | 0.0 | 0.0 | 0.00 | 0.00 | 0.00 | 84 | 1015.4 |
| 20260505122552 | 55 | 0 | 0.0 | 0.0 | 0.00 | 0.00 | 0.00 | 84 | 1015.3 |
| 20260505122052 | 55 | 0 | 0.0 | 0.0 | 0.00 | 0.00 | 0.00 | 84 | 1015.2 |
| 20260505121557 | 55 | 0 | 0.0 | 0.0 | 0.00 | 0.00 | 0.00 | 84 | 1015.3 |
| 20260505121056 | 55 | 0 | 0.0 | 0.0 | 0.00 | 0.00 | 0.00 | 85 | 1015.3 |
| 20260505120551 | 55 | 0 | 0.0 | 1.0 | 0.00 | 0.00 | 0.00 | 84 | 1015.3 |
| 20260505120108 | 55 | 0 | 0.0 | 1.0 | 0.00 | 0.00 | 0.00 | 84 | 1015.3 |
| 20260505115551 | 55 | 0 | 0.0 | 1.0 | 0.00 | 0.00 | 0.00 | 84 | 1015.3 |
| 20260505115050 | 55 | 264 | 0.0 | 1.0 | 0.00 | 0.00 | 0.00 | 84 | 1015.3 |
| 20260505114556 | 55 | 0 | 0.0 | 1.0 | 0.00 | 0.00 | 0.00 | 84 | 1015.4 |
| 20260505114051 | 55 | 0 | 0.0 | 1.0 | 0.00 | 0.00 | 0.00 | 84 | 1015.2 |
| 20260505113553 | 55 | 0 | 0.0 | 1.0 | 0.00 | 0.00 | 0.00 | 84 | 1015.2 |
| 20260505113104 | 55 | 0 | 0.0 | 1.0 | 0.00 | 0.00 | 0.00 | 84 | 1015.1 |
| 20260505112557 | 55 | 167 | 0.0 | 2.0 | 0.00 | 0.00 | 0.00 | 84 | 1015.3 |
| 20260505112053 | 55 | 0 | 0.0 | 2.0 | 0.00 | 0.00 | 0.00 | 84 | 1015.3 |
| 20260505111555 | 55 | 342 | 0.0 | 1.0 | 0.00 | 0.00 | 0.00 | 84 | 1015.3 |
| 20260505111055 | 55 | 0 | 0.0 | 2.0 | 0.00 | 0.00 | 0.00 | 84 | 1015.3 |
| 20260505110554 | 55 | 266 | 0.0 | 2.0 | 0.00 | 0.00 | 0.00 | 84 | 1015.2 |
| 20260505110111 | 54 | 0 | 0.0 | 1.0 | 0.00 | 0.00 | 0.00 | 84 | 1015.1 |
| 20260505102051 | 55 | 0 | 0.0 | 1.0 | 0.00 | 0.00 | 0.00 | 83 | 1014.9 |
| 20260505101550 | 55 | 0 | 0.0 | 1.0 | 0.00 | 0.00 | 0.00 | 83 | 1014.7 |
| 20260505101052 | 55 | 0 | 0.0 | 1.0 | 0.00 | 0.00 | 0.00 | 83 | 1014.9 |
| 20260505100557 | 55 | 349 | 0.0 | 1.0 | 0.00 | 0.00 | 0.00 | 83 | 1014.9 |
| 20260505100057 | 55 | 0 | 0.0 | 1.0 | 0.00 | 0.00 | 0.00 | 83 | 1014.9 |
| 20260505095554 | 55 | 0 | 0.0 | 1.0 | 0.00 | 0.00 | 0.00 | 83 | 1014.9 |
| 20260505095050 | 55 | 0 | 0.0 | 1.0 | 0.00 | 0.00 | 0.00 | 83 | 1014.9 |
| 20260505094559 | 55 | 0 | 0.0 | 1.0 | 0.00 | 0.00 | 0.00 | 82 | 1014.9 |
| 20260505094051 | 55 | 0 | 0.0 | 1.0 | 0.00 | 0.00 | 0.00 | 82 | 1014.8 |
| 20260505093551 | 55 | 0 | 0.0 | 1.0 | 0.00 | 0.00 | 0.00 | 82 | 1014.7 |
| 20260505093102 | 56 | 0 | 0.0 | 1.0 | 0.00 | 0.00 | 0.00 | 82 | 1014.7 |
| 20260505092551 | 56 | 68 | 0.0 | 1.0 | 0.00 | 0.00 | 0.00 | 82 | 1014.6 |
| 20260505092053 | 56 | 0 | 0.0 | 1.0 | 0.00 | 0.00 | 0.00 | 82 | 1014.6 |
| 20260505091556 | 56 | 0 | 0.0 | 2.0 | 0.00 | 0.00 | 0.00 | 82 | 1014.6 |
| 20260505091051 | 56 | 0 | 0.0 | 2.0 | 0.00 | 0.00 | 0.00 | 81 | 1014.5 |
| 20260505090553 | 56 | 46 | 0.0 | 1.0 | 0.00 | 0.00 | 0.00 | 82 | 1014.4 |
| 20260505090056 | 56 | 0 | 0.0 | 1.0 | 0.00 | 0.00 | 0.00 | 81 | 1014.4 |
| 20260505085553 | 56 | 0 | 0.0 | 1.0 | 0.00 | 0.00 | 0.00 | 81 | 1014.3 |
| 20260505085051 | 56 | 0 | 0.0 | 1.0 | 0.00 | 0.00 | 0.00 | 81 | 1014.4 |
| 20260505084558 | 56 | 0 | 0.0 | 1.0 | 0.00 | 0.00 | 0.00 | 81 | 1014.4 |
| 20260505084052 | 56 | 0 | 0.0 | 1.0 | 0.00 | 0.00 | 0.00 | 81 | 1014.4 |
| 20260505083550 | 57 | 0 | 0.0 | 1.0 | 0.00 | 0.00 | 0.00 | 81 | 1014.4 |
| 20260505083058 | 57 | 0 | 0.0 | 1.0 | 0.00 | 0.00 | 0.00 | 80 | 1014.3 |
| 20260505082550 | 57 | 0 | 0.0 | 1.0 | 0.00 | 0.00 | 0.00 | 80 | 1014.3 |
| 20260505082050 | 57 | 0 | 0.0 | 1.0 | 0.00 | 0.00 | 0.00 | 80 | 1014.2 |
| 20260505081623 | 57 | 0 | 0.0 | 1.0 | 0.00 | 0.00 | 0.00 | 80 | 1014.1 |
| 20260505081054 | 57 | 0 | 0.0 | 1.0 | 0.00 | 0.00 | 0.00 | 80 | 1014.1 |
| 20260505080556 | 57 | 0 | 0.0 | 1.0 | 0.00 | 0.00 | 0.00 | 80 | 1014.2 |
| 20260505080104 | 57 | 0 | 0.0 | 1.0 | 0.00 | 0.00 | 0.00 | 80 | 1014.0 |
| 20260505075556 | 57 | 0 | 0.0 | 1.0 | 0.00 | 0.00 | 0.00 | 80 | 1014.1 |
| 20260505075053 | 58 | 0 | 0.0 | 1.0 | 0.00 | 0.00 | 0.00 | 79 | 1014.1 |
| 20260505074555 | 58 | 0 | 0.0 | 1.0 | 0.00 | 0.00 | 0.00 | 79 | 1014.1 |
| 20260505074053 | 58 | 274 | 0.0 | 1.0 | 0.00 | 0.00 | 0.00 | 79 | 1014.0 |
| 20260505073553 | 58 | 0 | 0.0 | 1.0 | 0.00 | 0.00 | 0.00 | 79 | 1013.8 |
| 20260505073055 | 58 | 0 | 0.0 | 1.0 | 0.00 | 0.00 | 0.00 | 79 | 1013.8 |
| 20260505072552 | 58 | 0 | 0.0 | 1.0 | 0.00 | 0.00 | 0.00 | 78 | 1013.6 |
| 20260505072055 | 59 | 0 | 0.0 | 2.0 | 0.00 | 0.00 | 0.00 | 78 | 1013.7 |
| 20260505071600 | 59 | 0 | 0.0 | 3.0 | 0.00 | 0.00 | 0.00 | 78 | 1013.5 |
| 20260505071050 | 59 | 214 | 1.0 | 3.0 | 0.00 | 0.00 | 0.00 | 78 | 1013.4 |
| 20260505070554 | 59 | 307 | 1.0 | 3.0 | 0.00 | 0.00 | 0.00 | 78 | 1013.4 |
| 20260505070105 | 59 | 238 | 0.0 | 3.0 | 0.00 | 0.00 | 0.00 | 78 | 1013.4 |
| 20260505065553 | 59 | 318 | 0.0 | 3.0 | 0.00 | 0.00 | 0.00 | 79 | 1013.3 |
| 20260505065053 | 59 | 209 | 0.0 | 3.0 | 0.00 | 0.00 | 0.00 | 79 | 1013.3 |
| 20260505064559 | 59 | 240 | 1.0 | 3.0 | 0.00 | 0.00 | 0.00 | 79 | 1013.1 |
| 20260505064054 | 59 | 219 | 0.0 | 1.0 | 0.00 | 0.00 | 0.00 | 79 | 1013.1 |
| 20260505063553 | 59 | 0 | 0.0 | 0.0 | 0.00 | 0.00 | 0.00 | 80 | 1013.0 |
| 20260505063057 | 59 | 0 | 0.0 | 0.0 | 0.00 | 0.00 | 0.00 | 79 | 1012.9 |
| 20260505062553 | 60 | 0 | 0.0 | 0.0 | 0.00 | 0.00 | 0.00 | 78 | 1013.0 |
| 20260505062054 | 60 | 0 | 0.0 | 0.0 | 0.00 | 0.00 | 0.00 | 78 | 1012.9 |
| 20260505061600 | 60 | 0 | 0.0 | 1.0 | 0.00 | 0.00 | 0.00 | 78 | 1012.7 |
| 20260505061055 | 60 | 0 | 0.0 | 1.0 | 0.00 | 0.00 | 0.00 | 77 | 1012.7 |
| 20260505060553 | 61 | 312 | 0.0 | 1.0 | 0.00 | 0.00 | 0.00 | 77 | 1012.6 |
| 20260505060058 | 61 | 0 | 0.0 | 1.0 | 0.00 | 0.00 | 0.00 | 76 | 1012.6 |
| 20260505055553 | 61 | 0 | 0.0 | 3.0 | 0.00 | 0.00 | 0.00 | 76 | 1012.7 |
| 20260505055053 | 62 | 312 | 0.0 | 3.0 | 0.00 | 0.00 | 0.00 | 76 | 1012.6 |
| 20260505054559 | 62 | 301 | 0.0 | 2.0 | 0.00 | 0.00 | 0.00 | 75 | 1012.5 |
| 20260505054055 | 62 | 297 | 0.0 | 2.0 | 0.00 | 0.00 | 0.00 | 75 | 1012.6 |
| 20260505053552 | 62 | 0 | 1.0 | 2.0 | 0.00 | 0.00 | 0.00 | 74 | 1012.5 |
| 20260505053103 | 63 | 0 | 0.0 | 2.0 | 0.00 | 0.00 | 0.00 | 74 | 1012.5 |
| 20260505052552 | 63 | 309 | 0.0 | 2.0 | 0.00 | 0.00 | 0.00 | 73 | 1012.4 |
| 20260505052056 | 63 | 303 | 0.0 | 2.0 | 0.00 | 0.00 | 0.00 | 73 | 1012.4 |
| 20260505051553 | 64 | 0 | 0.0 | 2.0 | 0.00 | 0.00 | 0.00 | 72 | 1012.4 |
| 20260505051053 | 64 | 287 | 0.0 | 1.0 | 0.00 | 0.00 | 0.00 | 72 | 1012.4 |
| 20260505050552 | 64 | 0 | 0.0 | 3.0 | 0.00 | 0.00 | 0.00 | 71 | 1012.3 |
| 20260505041555 | 67 | 304 | 1.0 | 4.0 | 0.00 | 0.00 | 0.00 | 69 | 1011.6 |
| 20260505041053 | 67 | 0 | 0.0 | 4.0 | 0.00 | 0.00 | 0.00 | 69 | 1011.6 |
| 20260505040554 | 67 | 210 | 0.0 | 4.0 | 0.00 | 0.00 | 0.00 | 70 | 1011.5 |
| 20260505040105 | 68 | 215 | 1.0 | 4.0 | 0.00 | 0.00 | 0.00 | 70 | 1011.4 |
| 20260505035553 | 68 | 186 | 0.0 | 2.0 | 0.00 | 0.00 | 0.00 | 71 | 1011.2 |
| 20260505035053 | 68 | 181 | 0.0 | 2.0 | 0.00 | 0.00 | 0.00 | 71 | 1011.3 |
| 20260505034555 | 68 | 0 | 0.0 | 1.0 | 0.00 | 0.00 | 0.00 | 71 | 1011.2 |
| 20260505034053 | 68 | 0 | 0.0 | 2.0 | 0.00 | 0.00 | 0.00 | 71 | 1011.0 |
| 20260505033553 | 69 | 172 | 0.0 | 2.0 | 0.00 | 0.00 | 0.00 | 71 | 1010.9 |
| 20260505033055 | 69 | 55 | 0.0 | 2.0 | 0.00 | 0.00 | 0.00 | 71 | 1010.9 |
| 20260505032552 | 69 | 319 | 0.0 | 3.0 | 0.00 | 0.00 | 0.00 | 71 | 1010.7 |
| 20260505032052 | 69 | 309 | 0.0 | 3.0 | 0.00 | 0.00 | 0.00 | 70 | 1010.7 |
| 20260505031600 | 70 | 164 | 0.0 | 1.0 | 0.00 | 0.00 | 0.00 | 70 | 1010.7 |
| 20260505031052 | 70 | 0 | 0.0 | 1.0 | 0.00 | 0.00 | 0.00 | 69 | 1010.6 |
| 20260505030554 | 70 | 0 | 0.0 | 2.0 | 0.00 | 0.00 | 0.00 | 69 | 1010.6 |
| 20260505030105 | 71 | 0 | 0.0 | 2.0 | 0.00 | 0.00 | 0.00 | 68 | 1010.6 |
| 20260505025553 | 71 | 288 | 0.0 | 1.0 | 0.00 | 0.00 | 0.00 | 67 | 1010.4 |
| 20260505025054 | 72 | 0 | 0.0 | 3.0 | 0.00 | 0.00 | 0.00 | 67 | 1010.4 |
| 20260505024555 | 72 | 0 | 0.0 | 3.0 | 0.00 | 0.00 | 0.00 | 66 | 1010.3 |
| 20260505024053 | 72 | 0 | 0.0 | 3.0 | 0.00 | 0.00 | 0.00 | 65 | 1010.3 |
| 20260505023552 | 73 | 245 | 0.0 | 3.0 | 0.00 | 0.00 | 0.00 | 65 | 1010.4 |
| 20260505023102 | 73 | 0 | 0.0 | 2.0 | 0.00 | 0.00 | 0.00 | 64 | 1010.3 |
| 20260505022553 | 74 | 9 | 0.0 | 2.0 | 0.00 | 0.00 | 0.00 | 63 | 1010.3 |
| 20260505022052 | 74 | 330 | 0.0 | 2.0 | 0.00 | 0.00 | 0.00 | 62 | 1010.3 |
| 20260505021557 | 74 | 115 | 0.0 | 2.0 | 0.00 | 0.00 | 0.00 | 62 | 1010.3 |
| 20260505021053 | 74 | 0 | 0.0 | 3.0 | 0.00 | 0.00 | 0.00 | 63 | 1010.3 |
| 20260505020552 | 74 | 0 | 0.0 | 3.0 | 0.00 | 0.00 | 0.00 | 63 | 1010.3 |
| 20260505020056 | 74 | 65 | 1.0 | 3.0 | 0.00 | 0.00 | 0.00 | 63 | 1010.3 |
| 20260505015553 | 74 | 60 | 0.0 | 3.0 | 0.00 | 0.00 | 0.00 | 63 | 1010.2 |
| 20260505015055 | 74 | 311 | 1.0 | 3.0 | 0.00 | 0.00 | 0.00 | 63 | 1010.2 |
| 20260505014553 | 74 | 2 | 1.0 | 3.0 | 0.00 | 0.00 | 0.00 | 63 | 1010.3 |
| 20260505014052 | 74 | 63 | 0.0 | 3.0 | 0.00 | 0.00 | 0.00 | 63 | 1010.3 |
| 20260505013552 | 74 | 107 | 1.0 | 3.0 | 0.00 | 0.00 | 0.00 | 62 | 1010.5 |
| 20260505013055 | 74 | 285 | 0.0 | 3.0 | 0.00 | 0.00 | 0.00 | 62 | 1010.4 |
| 20260505012552 | 74 | 340 | 1.0 | 4.0 | 0.00 | 0.00 | 0.00 | 61 | 1010.5 |
| 20260505012055 | 75 | 246 | 0.0 | 4.0 | 0.00 | 0.00 | 0.00 | 61 | 1010.4 |
| 20260505011556 | 75 | 281 | 2.0 | 4.0 | 0.00 | 0.00 | 0.00 | 61 | 1010.6 |
| 20260505011055 | 75 | 67 | 0.0 | 3.0 | 0.00 | 0.00 | 0.00 | 60 | 1010.5 |
| 20260505010552 | 76 | 0 | 0.0 | 4.0 | 0.00 | 0.00 | 0.00 | 60 | 1010.4 |
| 20260505010104 | 76 | 313 | 1.0 | 4.0 | 0.00 | 0.00 | 0.00 | 59 | 1010.6 |
| 20260505005553 | 76 | 117 | 0.0 | 2.0 | 0.00 | 0.00 | 0.00 | 60 | 1010.7 |
| 20260505005052 | 76 | 285 | 1.0 | 4.0 | 0.00 | 0.00 | 0.00 | 60 | 1010.6 |
| 20260505004552 | 75 | 80 | 1.0 | 4.0 | 0.00 | 0.00 | 0.00 | 60 | 1010.7 |
| 20260505004051 | 76 | 107 | 1.0 | 4.0 | 0.00 | 0.00 | 0.00 | 58 | 1010.8 |
| 20260505003555 | 76 | 330 | 2.0 | 4.0 | 0.00 | 0.00 | 0.00 | 59 | 1010.7 |
| 20260505003057 | 76 | 28 | 1.0 | 3.0 | 0.00 | 0.00 | 0.00 | 61 | 1010.7 |
| 20260505002552 | 76 | 65 | 1.0 | 3.0 | 0.00 | 0.00 | 0.00 | 60 | 1010.7 |
| 20260505002052 | 76 | 74 | 1.0 | 6.0 | 0.00 | 0.00 | 0.00 | 59 | 1010.7 |
| 20260505001554 | 76 | 185 | 1.0 | 6.0 | 0.00 | 0.00 | 0.00 | 58 | 1010.8 |
| 20260505001053 | 76 | 160 | 2.0 | 6.0 | 0.00 | 0.00 | 0.00 | 59 | 1010.8 |
| 20260505000552 | 76 | 31 | 2.0 | 4.0 | 0.00 | 0.00 | 0.00 | 59 | 1010.9 |
| 20260505000105 | 76 | 76 | 2.0 | 4.0 | 0.00 | 0.00 | 0.00 | 59 | 1010.9 |
| 20260504235552 | 76 | 227 | 1.0 | 3.0 | 0.00 | 0.00 | 0.00 | 58 | 1010.8 |
| 20260504235052 | 76 | 330 | 1.0 | 4.0 | 0.00 | 0.00 | 0.00 | 58 | 1010.9 |
| 20260504234558 | 76 | 63 | 1.0 | 7.0 | 0.00 | 0.00 | 0.00 | 57 | 1011.0 |
| 20260504234055 | 76 | 139 | 1.0 | 7.0 | 0.00 | 0.00 | 0.00 | 57 | 1010.8 |
| 20260504233553 | 76 | 181 | 2.0 | 5.0 | 0.00 | 0.00 | 0.00 | 56 | 1010.8 |
| 20260504233054 | 76 | 66 | 1.0 | 5.0 | 0.00 | 0.00 | 0.00 | 57 | 1010.8 |
| 20260504232553 | 76 | 151 | 1.0 | 4.0 | 0.00 | 0.00 | 0.00 | 57 | 1011.0 |
| 20260504232053 | 76 | 131 | 1.0 | 4.0 | 0.00 | 0.00 | 0.00 | 57 | 1011.1 |
| 20260504231555 | 76 | 76 | 1.0 | 4.0 | 0.00 | 0.00 | 0.00 | 57 | 1011.1 |
| 20260504231052 | 76 | 309 | 1.0 | 4.0 | 0.00 | 0.00 | 0.00 | 56 | 1011.2 |
| 20260504230551 | 75 | 345 | 1.0 | 4.0 | 0.00 | 0.00 | 0.00 | 58 | 1011.2 |
| 20260504230056 | 76 | 79 | 1.0 | 4.0 | 0.00 | 0.00 | 0.00 | 57 | 1011.2 |
| 20260504225553 | 75 | 150 | 1.0 | 6.0 | 0.00 | 0.00 | 0.00 | 57 | 1011.4 |
| 20260504225055 | 75 | 53 | 0.0 | 6.0 | 0.00 | 0.00 | 0.00 | 58 | 1011.3 |
| 20260504224601 | 75 | 360 | 1.0 | 6.0 | 0.00 | 0.00 | 0.00 | 57 | 1011.4 |
| 20260504224051 | 75 | 75 | 1.0 | 4.0 | 0.00 | 0.00 | 0.00 | 57 | 1011.4 |
| 20260504223552 | 75 | 188 | 1.0 | 5.0 | 0.00 | 0.00 | 0.00 | 57 | 1011.5 |
| 20260504223058 | 74 | 120 | 1.0 | 5.0 | 0.00 | 0.00 | 0.00 | 58 | 1011.6 |
| 20260504222552 | 74 | 67 | 1.0 | 4.0 | 0.00 | 0.00 | 0.00 | 59 | 1011.7 |
| 20260504222051 | 74 | 141 | 1.0 | 5.0 | 0.00 | 0.00 | 0.00 | 58 | 1011.7 |
| 20260504221556 | 74 | 256 | 1.0 | 5.0 | 0.00 | 0.00 | 0.00 | 58 | 1011.8 |
| 20260504221051 | 73 | 215 | 1.0 | 4.0 | 0.00 | 0.00 | 0.00 | 60 | 1011.9 |
| 20260504220552 | 73 | 331 | 1.0 | 4.0 | 0.00 | 0.00 | 0.00 | 59 | 1011.8 |
| 20260504220118 | 73 | 45 | 2.0 | 5.0 | 0.00 | 0.00 | 0.00 | 60 | 1011.9 |
| 20260504215552 | 73 | 326 | 1.0 | 5.0 | 0.00 | 0.00 | 0.00 | 59 | 1012.1 |
| 20260504215052 | 73 | 152 | 2.0 | 5.0 | 0.00 | 0.00 | 0.00 | 59 | 1012.0 |
| 20260504214558 | 72 | 260 | 1.0 | 4.0 | 0.00 | 0.00 | 0.00 | 60 | 1012.0 |
| 20260504214051 | 71 | 20 | 1.0 | 4.0 | 0.00 | 0.00 | 0.00 | 62 | 1012.1 |
| 20260504213552 | 71 | 69 | 2.0 | 4.0 | 0.00 | 0.00 | 0.00 | 61 | 1012.1 |
| 20260504213100 | 71 | 82 | 1.0 | 4.0 | 0.00 | 0.00 | 0.00 | 63 | 1012.3 |
| 20260504212552 | 71 | 75 | 1.0 | 5.0 | 0.00 | 0.00 | 0.00 | 62 | 1012.4 |
| 20260504212051 | 71 | 70 | 1.0 | 6.0 | 0.00 | 0.00 | 0.00 | 62 | 1012.4 |
| 20260504211556 | 71 | 182 | 1.0 | 6.0 | 0.00 | 0.00 | 0.00 | 62 | 1012.5 |
| 20260504211055 | 71 | 200 | 1.0 | 5.0 | 0.00 | 0.00 | 0.00 | 61 | 1012.6 |
| 20260504210552 | 71 | 173 | 2.0 | 7.0 | 0.00 | 0.00 | 0.00 | 63 | 1012.7 |
| 20260504210055 | 70 | 212 | 2.0 | 7.0 | 0.00 | 0.00 | 0.00 | 62 | 1012.8 |
| 20260504205555 | 70 | 264 | 1.0 | 3.0 | 0.00 | 0.00 | 0.00 | 63 | 1012.9 |
| 20260504205051 | 70 | 32 | 1.0 | 3.0 | 0.00 | 0.00 | 0.00 | 62 | 1013.0 |
| 20260504204556 | 70 | 78 | 1.0 | 4.0 | 0.00 | 0.00 | 0.00 | 63 | 1013.1 |
| 20260504204053 | 70 | 259 | 1.0 | 5.0 | 0.00 | 0.00 | 0.00 | 63 | 1013.2 |
| 20260504203551 | 69 | 242 | 2.0 | 6.0 | 0.00 | 0.00 | 0.00 | 63 | 1013.1 |
| 20260504203055 | 69 | 244 | 1.0 | 6.0 | 0.00 | 0.00 | 0.00 | 65 | 1013.2 |
| 20260504202552 | 69 | 230 | 3.0 | 6.0 | 0.00 | 0.00 | 0.00 | 64 | 1013.2 |
| 20260504202051 | 69 | 225 | 0.0 | 2.0 | 0.00 | 0.00 | 0.00 | 65 | 1013.4 |
| 20260504201554 | 69 | 329 | 1.0 | 4.0 | 0.00 | 0.00 | 0.00 | 65 | 1013.3 |
| 20260504201052 | 68 | 46 | 1.0 | 4.0 | 0.00 | 0.00 | 0.00 | 65 | 1013.4 |
| 20260504200551 | 68 | 114 | 1.0 | 5.0 | 0.00 | 0.00 | 0.00 | 66 | 1013.7 |
| 20260504200056 | 68 | 4 | 1.0 | 5.0 | 0.00 | 0.00 | 0.00 | 66 | 1013.6 |
| 20260504195549 | 68 | 234 | 1.0 | 5.0 | 0.00 | 0.00 | 0.00 | 66 | 1013.6 |
| 20260504195051 | 67 | 300 | 1.0 | 5.0 | 0.00 | 0.00 | 0.00 | 67 | 1013.6 |
| 20260504194556 | 67 | 0 | 1.0 | 4.0 | 0.00 | 0.00 | 0.00 | 67 | 1013.7 |
| 20260504194050 | 67 | 221 | 2.0 | 4.0 | 0.00 | 0.00 | 0.00 | 67 | 1013.6 |
| 20260504193552 | 66 | 240 | 1.0 | 4.0 | 0.00 | 0.00 | 0.00 | 70 | 1013.7 |
| 20260504193054 | 65 | 119 | 1.0 | 6.0 | 0.00 | 0.00 | 0.00 | 70 | 1013.7 |
| 20260504192552 | 65 | 264 | 2.0 | 7.0 | 0.00 | 0.00 | 0.00 | 69 | 1013.7 |
| 20260504192052 | 65 | 172 | 2.0 | 7.0 | 0.00 | 0.00 | 0.00 | 69 | 1013.9 |
| 20260504191557 | 65 | 162 | 1.0 | 3.0 | 0.00 | 0.00 | 0.00 | 69 | 1013.9 |
| 20260504191052 | 65 | 292 | 1.0 | 3.0 | 0.00 | 0.00 | 0.00 | 70 | 1013.8 |
| 20260504190552 | 65 | 79 | 1.0 | 3.0 | 0.00 | 0.00 | 0.00 | 70 | 1013.8 |
| 20260504185551 | 64 | 306 | 1.0 | 4.0 | 0.00 | 0.00 | 0.00 | 71 | 1014.0 |
| 20260504185052 | 63 | 0 | 1.0 | 3.0 | 0.00 | 0.00 | 0.00 | 72 | 1014.1 |
| 20260504184611 | 63 | 283 | 0.0 | 3.0 | 0.00 | 0.00 | 0.00 | 73 | 1014.1 |
| 20260504184052 | 62 | 86 | 0.0 | 6.0 | 0.00 | 0.00 | 0.00 | 73 | 1014.2 |
| 20260504183552 | 62 | 53 | 1.0 | 8.0 | 0.00 | 0.00 | 0.00 | 74 | 1014.1 |
| 20260504183053 | 62 | 203 | 3.0 | 8.0 | 0.00 | 0.00 | 0.00 | 73 | 1014.0 |
| 20260504182552 | 62 | 212 | 1.0 | 5.0 | 0.00 | 0.00 | 0.00 | 74 | 1014.1 |